Ocean Shores Weather Center

Moon Phase Calendar



Online Cameras

 


      

Current Conditions in Ocean Shores
10/1/2022 8:43:32 AM

57°F
Feels Like 57
Clear
Humidity
91%
Pressure
30"
Wind
8 mph (NE)
Dew Point
55°F
UV Index
0/10 (Low)
Visibility
6 mi

Hourly Forecast

Date & Time Sat, Oct 1
8:00 AM
Sat, Oct 1
9:00 AM
Sat, Oct 1
10:00 AM
Sat, Oct 1
11:00 AM
Sat, Oct 1
12:00 PM
Sat, Oct 1
1:00 PM
Sat, Oct 1
2:00 PM
Sat, Oct 1
3:00 PM
Sat, Oct 1
4:00 PM
Sat, Oct 1
5:00 PM
Sat, Oct 1
6:00 PM
Sat, Oct 1
7:00 PM
Sat, Oct 1
8:00 PM
Sat, Oct 1
9:00 PM
Sat, Oct 1
10:00 PM
Sat, Oct 1
11:00 PM
Sun, Oct 2
12:00 AM
Sun, Oct 2
1:00 AM
Sun, Oct 2
2:00 AM
Sun, Oct 2
3:00 AM
Sun, Oct 2
4:00 AM
Sun, Oct 2
5:00 AM
Sun, Oct 2
6:00 AM
Sun, Oct 2
7:00 AM
Sun, Oct 2
8:00 AM
Sun, Oct 2
9:00 AM
Sun, Oct 2
10:00 AM
Sun, Oct 2
11:00 AM
Sun, Oct 2
12:00 PM
Sun, Oct 2
1:00 PM
Sun, Oct 2
2:00 PM
Sun, Oct 2
3:00 PM
Sun, Oct 2
4:00 PM
Sun, Oct 2
5:00 PM
Sun, Oct 2
6:00 PM
Sun, Oct 2
7:00 PM
Sun, Oct 2
8:00 PM
Sun, Oct 2
9:00 PM
Sun, Oct 2
10:00 PM
Sun, Oct 2
11:00 PM
Mon, Oct 3
12:00 AM
Mon, Oct 3
1:00 AM
Mon, Oct 3
2:00 AM
Mon, Oct 3
3:00 AM
Mon, Oct 3
4:00 AM
Mon, Oct 3
5:00 AM
Mon, Oct 3
6:00 AM
Mon, Oct 3
7:00 AM
Condition
Clear

Clear

Clear

Clear

Clouds

Clouds

Clouds

Clouds

Clouds

Clouds

Clear

Clear

Clear

Clear

Clear

Clear

Clear

Clear

Clear

Clear

Clear

Clear

Clear

Clear

Clear

Clear

Clear

Clear

Clear

Clear

Clear

Clear

Clear

Clear

Clear

Clear

Clear

Clear

Clouds

Clouds

Clear

Clear

Clear

Clear

Clear

Clear

Clear

Clear
Temperature 57°F57°F58°F60°F64°F67°F71°F69°F69°F66°F63°F60°F59°F59°F58°F58°F59°F59°F59°F59°F58°F58°F58°F57°F58°F60°F64°F67°F69°F69°F66°F63°F62°F62°F61°F58°F58°F57°F57°F57°F57°F56°F56°F56°F56°F56°F56°F56°F
Feels Like 57°F57°F58°F60°F63°F67°F70°F69°F68°F65°F63°F60°F59°F58°F57°F58°F58°F58°F58°F58°F58°F57°F57°F57°F57°F60°F63°F66°F68°F68°F65°F62°F62°F62°F60°F58°F58°F57°F57°F57°F56°F56°F56°F56°F56°F56°F55°F55°F
Cloudiness 1%0%1%2%36%62%61%47%38%32%0%0%0%0%0%0%7%5%4%4%3%2%0%0%0%0%0%0%5%6%6%6%6%6%4%4%5%6%13%11%5%5%4%3%3%2%1%1%
Visibility 6 mi6 mi6 mi6 mi6 mi6 mi6 mi6 mi6 mi6 mi6 mi6 mi6 mi6 mi6 mi6 mi6 mi6 mi6 mi6 mi6 mi6 mi6 mi6 mi6 mi6 mi6 mi6 mi6 mi6 mi6 mi6 mi6 mi6 mi6 mi6 mi6 mi6 mi6 mi6 mi6 mi6 mi6 mi6 mi6 mi6 mi6 mi6 mi
Precipitation 0%0%0%0%0%0%0%0%0%0%0%0%0%0%0%0%0%0%0%0%0%0%0%0%0%0%0%0%0%0%0%0%0%0%0%0%0%0%0%0%0%0%0%0%0%0%0%0%
Humidity 90%91%87%81%74%64%57%61%64%69%73%77%78%80%82%82%81%80%80%80%80%80%81%81%80%75%68%62%59%60%69%75%77%78%82%87%89%90%91%92%92%92%92%92%92%91%91%90%
Dew Point 54°F55°F54°F55°F55°F55°F54°F54°F55°F55°F54°F53°F52°F53°F53°F53°F52°F53°F52°F52°F52°F52°F52°F51°F51°F52°F52°F53°F53°F53°F54°F54°F55°F55°F55°F55°F54°F54°F54°F54°F54°F54°F54°F54°F54°F53°F53°F53°F
Pressure 30"30"30"30"29.97"29.97"29.94"29.91"29.91"29.91"29.91"29.91"29.91"29.91"29.88"29.88"29.88"29.88"29.88"29.88"29.88"29.88"29.88"29.91"29.91"29.91"29.91"29.91"29.91"29.94"29.94"29.94"29.94"29.94"29.94"29.97"29.97"29.97"29.97"29.97"29.97"30"30"30"30"30"30.03"30.03"
Wind Speed 9.4 mph10.5 mph10.9 mph10.2 mph8.8 mph7.1 mph6.6 mph9.2 mph11.6 mph12.9 mph11.6 mph10 mph9 mph8.6 mph7.5 mph5.7 mph4.8 mph4.6 mph4.9 mph5.5 mph6 mph6.7 mph7.8 mph8.4 mph8.3 mph8.1 mph8 mph7.2 mph4.8 mph4.6 mph8.8 mph6.9 mph3.6 mph3.1 mph2.4 mph2.8 mph3.9 mph4.6 mph5.6 mph5.4 mph5.2 mph4.7 mph4.4 mph4.8 mph4.2 mph4.5 mph5.2 mph4.9 mph
Wind
Direction
58°
ENE
65°
ENE
70°
ENE
70°
ENE
65°
ENE
53°
NE
16°
NNE
346°
NNW
336°
NNW
335°
NNW
338°
NNW
340°
NNW
341°
NNW
339°
NNW
349°
N

N
28°
NNE
48°
NE
58°
ENE
61°
ENE
63°
ENE
62°
ENE
66°
ENE
67°
ENE
67°
ENE
66°
ENE
73°
ENE
87°
E
114°
ESE
194°
SSW
225°
SW
232°
SW
240°
WSW
230°
SW
226°
SW
206°
SSW
178°
S
164°
SSE
164°
SSE
164°
SSE
156°
SSE
162°
SSE
159°
SSE
144°
SE
141°
SE
133°
SE
130°
SE
130°
SE

Daily Forecast

Date High Low Precip. Humidity
Today
Oct 1

Clouds
71 °F
56 °F
0%
64%
Sunday
Oct 2

Clear
69 °F
57 °F
0%
60%
Monday
Oct 3

Clear
63 °F
55 °F
0%
75%
Tuesday
Oct 4

Clouds
58 °F
54 °F
0%
82%
Wednesday
Oct 5

Clear
62 °F
54 °F
0%
76%
Thursday
Oct 6

Clouds
63 °F
55 °F
0%
73%
Friday
Oct 7

Clouds
63 °F
56 °F
0%
73%
Saturday
Oct 8

Clear
63 °F
55 °F
0%
73%
Sunday
Oct 9

Clouds
61 °F
55 °F
0%
78%
Monday
Oct 10

Rain
58 °F
56 °F
71%
93%
Tuesday
Oct 11

Rain
58 °F
56 °F
61%
91%
Wednesday
Oct 12

Clouds
63 °F
53 °F
0%
65%
Thursday
Oct 13

Rain
58 °F
56 °F
100%
97%
Friday
Oct 14

Rain
58 °F
55 °F
90%
82%
Saturday
Oct 15

Rain
57 °F
53 °F
97%
92%
Sunday
Oct 16

Clouds
65 °F
53 °F
0%
64%

Temperature 8-14 Day Outlook



Precipitation 8-14 Day Outlook




Quick Links
Ocean Shores News
Ocean Shores Photos
Ocean Shores Videos




About Us
Contact Us
Site Map
Search Site
Advertise With Us
   
OceanShores.USCoast.info
THE OCEAN SHORES WEBSITE

Copyright 2022, Coastal Town
Privacy    |    Legal